Tracking 32579 objects as of 16-Dec-2025
HD Live streaming from Space Station
objects crossing your sky now

SL-19 DEB

Track SL-19 DEB now!
10-day predictions


NORAD ID: 23482
Int'l Code: 1994-085E
Perigee: 1,679.9 km
Apogee: 2,338.3 km
Inclination: 64.7 °
Period: 127.2 minutes
Semi major axis: 8380 km
RCS: 0.2163 m2 (medium)
Launch date: December 26, 1994
Source: Commonwealth of Independent States (former USSR) (CIS)
Launch site: TYURATAM MISSILE AND SPACE COMPLEX (TTMTR)

Note: This is SATELLITE DEBRIS
Your satellite tracking list
Your tracking list is empty




NASA's NSSDC Master Catalog

Two Line Element Set (TLE):
1 23482U 94085E   25346.97150120 -.00001427  00000-0 -32387-1 0  9990
2 23482  64.7364 179.8716 0392846 207.2610 310.3436 11.31693404275400
Source of the keplerian elements: AFSPC